Regional Weather Roundup
Issued by NWS

Home | Current Version | Previous Version | Text Only | Print | Product List | Glossary On
Versions: 1 2 3 4 5 6 7 8 9 10 11 12 13 14 15 16 17 18 19 20 21 22 23 24 25 26 27 28 29 30 31 32 33 34 35 36 37 38 39 40 41 42 43 44 45 46 47 48 49 50
000
ASUS45 KABQ 200301
RWRNM
NEW MEXICO REGIONAL WEATHER ROUNDUP
NATIONAL WEATHER SERVICE ALBUQUERQUE NM
900 PM MDT SAT AUG 19 2017

NOTE: "FAIR" MEANS FEW OR NO CLOUDS BELOW 12,000 FEET AGL WITH NO
       SIGNIFICANT WEATHER OR OBSTRUCTIONS TO VISION.

      THIS PRODUCT IS RELEASED AS TWO VERSIONS.  ONE VERSION NEAR
      THE TOP OF THE HOUR CONTAINING PRELIMINARY DATA FROM ALBUQUERQUE
      AND OTHER STATIONS.  A FINAL VERSION WITH ADDITIONAL DATA IS
      ISSUED ABOUT 10 MINUTES AFTER THE HOUR.

NMZ501-503-504-510>518-200400-
NORTHWEST PLATEAU/NORTHCENTRAL MOUNTAINS

CITY           SKY/WX    TMP DP  RH WIND       PRES   REMARKS
FARMINGTON     FAIR      80  26  13 CALM      30.05R
LOS ALAMOS     FAIR      68  43  40 SW13      30.28S
SANTA FE       FAIR      71  46  40 SE7       30.21F
TAOS           FAIR      69  44  40 SW13      30.28R
ANGEL FIRE     MOCLDY    58  45  61 S6        30.37R

$$
NMZ402-403-502-505>509-200400-
WESTCENTRAL MOUNTAINS/SOUTHWEST MOUNTAINS

CITY           SKY/WX    TMP DP  RH WIND       PRES   REMARKS
GALLUP         FAIR      78  30  17 NW3       30.16R
GRANTS         FAIR      81  28  15 S5        30.19R
SILVER CITY    FAIR      70  51  50 N5        30.16S

$$
NMZ407-409-411-412-200400-
SOUTHERN DESERTS

CITY           SKY/WX    TMP DP  RH WIND       PRES   REMARKS
DEMING         FAIR      77  57  50 SW6       30.09R
LAS CRUCES     MOCLDY    80  53  38 SE7       30.12R
HOLLOMAN AFB   CLOUDY    78  59  52 S21       30.11S
ALAMOGORDO     FAIR      75  59  57 S14       30.12R
T OR C         FAIR      82  54  37 S14       30.10R

$$
NMZ519>523-200400-
CENTRAL VALLEYS/CENTRAL HIGHLANDS

CITY           SKY/WX    TMP DP  RH WIND       PRES   REMARKS
ALBUQUERQUE    MOCLDY    76  47  35 E20G26    30.14R
DOUBLE EAGLE   CLEAR     73  45  35 E6        30.19R
CLINES CORNERS FAIR      65  44  46 SE7       30.28R
BELEN          NOT AVBL
SOCORRO        NOT AVBL

$$
NMZ524>526-539-540-200400-
SOUTHCENTRAL MOUNTAINS

CITY           SKY/WX    TMP DP  RH WIND       PRES   REMARKS
RUIDOSO        NOT AVBL

$$
NMZ527>531-200400-
NORTHEAST HIGHLANDS/NORTHEAST PLAINS

CITY           SKY/WX    TMP DP  RH WIND       PRES   REMARKS
LAS VEGAS      FAIR      59  49  69 SW12      30.25F
RATON          FAIR      67  50  54 SE3       30.20R
CLAYTON        FAIR      69  54  58 SW10      30.10R

$$
NMZ532>537-200400-
EASTCENTRAL PLAINS

CITY           SKY/WX    TMP DP  RH WIND       PRES   REMARKS
SANTA ROSA     FAIR      74  48  39 E8        30.10S
TUCUMCARI      FAIR      77  54  44 E6        30.05R
CANNON AFB     FAIR      74  67  76 S5        30.11R
CLOVIS AIRPORT FAIR      72  65  78 S8        30.11R

$$
NMZ028-029-538-200400-
SOUTHEAST PLAINS

CITY           SKY/WX    TMP DP  RH WIND       PRES   REMARKS
ROSWELL        FAIR      79  58  48 SW7       30.05R
ARTESIA        MOCLDY    81  59  47 S6        30.05R
CARLSBAD       FAIR      75  70  84 E7        30.02R
HOBBS          FAIR      77  61  57 W7        30.07R


$$




USA.gov is the U.S. government's official web portal to all federal, state and local government web resources and services.